Weather in Jambi

Indonesia     1°37′17″S   103°36′42″E
temp.,
°C
wind,
m/s
gust,
m/s
humid.,
%
clouds,
%
prec.,
mm/h
press.,
hPa
HPBL,
m
18 january, mon
mon1801:00+24n31096100 12.8 1010501
04:00+22nnw31097100 7.5 1010670
07:00+22nnw21096100 8.2 1011676
10:00+24nnw3888100 0.1 1013663
13:00+26nnw3774100 0.1 1011965
16:00+27n3672100 0.1 10091032
19:00+23nne188598 0.1 1010365
22:00+22n1690100 0.0 1012190
19 january, tue
tue1901:00+22wnw149399 0.0 1011140
04:00+21wnw1295100 0.0 101088
07:00+22wnw249292 0.0 1011196
10:00+27nnw2570100 0.0 1012978
13:00+30nnw2458100 0.1 10091402
16:00+30n2361100 0.1 10071298
19:00+24nne278585 0.2 1009308
22:00+23nne149082 0.0 1011124
20 january, wed
wed2001:00+23n139291 0.0 1010116
04:00+22nnw1394100 0.0 1009141
07:00+23nnw268991 0.0 1010266
10:00+28n246686 0.0 1012902
13:00+32nnw245465 0.1 10091551
16:00+30n246481 0.4 10061223
19:00+25nne269070 0.9 1008211
22:00+23ne129444 0.0 101154
21 january, thu
thu2101:00+23n129753 0.0 101042
04:00+23nw129896 0.2 100954
07:00+23nw129798 1.1 1010125
10:00+29nnw237198 0.1 1011850
13:00+32nw225599 0.2 10081397
16:00+31n1257100 0.1 10061475
19:00+25nne279072 0.2 1007254
22:00+24ne159587 0.0 1010187
22 january, fri
fri2201:00+23nne119886 1.3 100923
04:00+23nw119992 0.4 100837
07:00+23wnw129696 0.4 1010132
10:00+29nnw127198 0.0 1011720
13:00+34nw114981 0.2 10081628
16:00+28ne248389 2.5 1005358
19:00+25ne269595 2.9 1007199
22:00+24ne1696100 0.3 1009209